EHI
0 0 0 0 1 0 0 0 1 1 1 2 4 4 4 5 7 10 10 9 9 10 9 9 8 7 6 6 6 6 6 6 6 4 3 3 3 2 2 3 4 5 6 6
0 0 0 0 1 0 0 0 1 1 1 2 4 4 4 6 7 8 8 9 9 9 9 10 9 8 7 7 6 6 6 6 6 4 3 3 3 3 4 5 6 6 6 6
0 0 0 0 0 0 0 0 0 0 1 4 6 4 4 6 7 6 7 8 8 7 8 10 10 9 8 7 7 6 6 6 6 4 3 3 4 5 6 8 8 7 7 6
0 0 0 0 0 0 0 0 0 0 2 6 7 4 4 6 7 7 7 7 7 6 7 9 10 10 9 8 7 6 6 6 6 4 3 3 4 5 7 8 9 9 8 7
0 0 0 0 0 0 0 0 0 0 3 7 7 6 7 8 8 8 8 7 5 4 7 9 10 10 10 9 7 6 6 6 5 4 3 3 4 5 7 8 9 9 8 8
0 0 0 0 0 0 0 1 1 2 4 8 8 8 11 11 9 8 9 7 4 3 6 10 11 10 10 9 8 7 6 5 4 3 3 3 3 4 6 7 8 8 8 8
0 0 0 0 0 0 0 1 2 2 5 8 10 11 11 10 8 7 8 5 3 3 6 10 13 12 11 10 9 7 6 4 4 4 3 3 3 3 4 6 7 6 6 7
0 0 0 0 0 0 0 1 2 2 5 10 13 12 9 8 7 6 5 4 3 4 6 10 13 13 11 9 8 6 4 3 4 5 4 3 3 3 4 6 6 5 4 4
0 0 0 0 1 0 0 1 2 3 6 10 12 10 6 4 5 6 5 5 5 5 6 8 9 10 9 8 6 4 3 3 4 6 5 4 3 3 4 6 6 5 4 4
0 0 0 0 0 0 0 0 1 3 6 8 9 6 3 2 3 5 5 5 6 6 5 6 6 7 7 5 4 3 2 2 4 5 5 4 3 3 3 4 5 5 5 5
0 0 0 0 0 0 1 1 1 1 3 4 6 4 2 1 2 4 5 6 6 6 6 6 6 6 5 4 4 3 3 3 4 4 4 3 3 2 1 2 3 3 4 5
1 0 0 1 0 0 0 1 1 1 1 3 3 2 0 0 1 2 4 6 6 6 6 6 6 6 5 4 4 4 3 3 3 3 3 3 3 2 1 1 1 1 2 3
1 0 0 0 0 0 0 1 2 2 2 3 1 0 0 0 0 1 3 5 6 6 6 6 6 6 6 5 5 4 3 3 3 3 3 3 3 3 1 0 0 0 1 1
1 0 0 0 0 0 0 1 2 3 3 3 1 0 0 0 0 1 2 5 6 6 6 6 6 6 6 6 6 4 3 3 3 3 3 3 3 3 2 0 0 0 0 0
0 0 0 1 0 0 0 1 2 3 3 2 1 0 0 0 0 1 3 5 6 6 6 6 6 6 6 6 6 5 4 3 3 3 3 3 3 3 2 0 0 0 0 1
0 0 0 0 0 0 0 1 3 3 3 2 1 0 0 0 0 1 3 4 4 5 6 6 6 6 6 6 6 5 4 3 3 3 3 3 3 2 1 0 0 0 0 1
0 0 0 0 0 0 0 1 2 3 3 2 1 0 0 0 0 0 1 1 1 2 3 5 7 7 7 7 6 4 3 2 2 3 3 2 2 1 1 0 0 0 0 1
0 0 0 0 0 0 0 0 1 2 3 2 1 0 0 0 0 0 0 0 0 0 1 3 6 8 8 7 5 3 2 2 2 2 1 1 1 0 0 0 0 0 0 0
0 0 0 0 0 0 0 0 0 1 2 2 1 0 0 0 0 0 0 0 0 0 0 1 3 5 6 6 4 2 1 1 1 1 0 0 0 0 0 0 0 0 0 0
0 0 0 0 0 0 0 0 0 0 1 2 2 1 1 1 1 0 0 1 1 1 1 0 0 2 3 3 2 1 0 0 0 0 0 0 0 0 0 0 0 0 0 1
0 0 0 0 0 0 0 0 0 0 1 2 2 2 2 2 2 1 1 1 2 2 2 1 0 0 1 1 0 0 0 0 0 0 0 0 0 0 0 0 0 0 0 1
0 0 0 0 0 0 0 0 0 0 0 1 1 2 3 3 3 3 2 2 2 2 2 1 0 0 0 0 0 0 0 0 0 0 0 0 0 0 0 0 0 0 0 1
0 0 0 0 0 0 0 0 0 0 0 0 0 1 1 2 2 2 2 1 1 0 1 1 0 0 0 0 0 0 0 0 0 0 0 0 0 0 0 0 0 0 0 0
0 0 0 0 0 0 0 0 0 0 0 0 0 0 0 1 1 1 1 0 0 0 0 0 0 0 0 0 0 0 0 0 0 0 0 0 0 0 0 0 0 0 0 0
0 0 0 0 0 0 0 0 0 0 0 0 0 0 0 0 0 0 0 0 0 0 0 0 0 0 0 0 0 0 0 0 0 0 0 0 0 0 0 0 0 0 0 0
0 0 0 0 0 0 0 0 0 0 0 0 0 0 0 0 0 0 0 0 0 0 0 0 0 0 0 0 0 0 0 0 0 0 0 0 0 0 0 0 0 0 0 0
0 0 0 0 0 0 0 0 0 0 0 0 0 0 0 0 0 0 0 0 0 0 0 0 0 0 0 0 0 0 0 0 0 0 0 0 0 0 0 0 0 0 0 0
Wind_Speed
7 6 5 7 8 9 10 10 10 7 7 4 2 1 0 1 2 3 4 4 5 5 4 4 4 4 4 3 4 4 4 4 4 3 3 4 4 4 4 4 5 5 5 5
8 8 7 7 8 9 9 9 9 8 6 3 1 1 0 1 2 3 3 4 4 4 4 4 4 4 4 4 4 4 4 4 4 3 3 3 3 4 4 4 4 4 5 5
9 8 8 9 8 8 7 7 8 7 4 0 1 1 0 1 2 2 2 3 3 4 4 4 4 4 4 4 4 4 5 4 4 4 4 4 3 3 3 4 4 4 4 4
7 7 10 4 2 4 5 5 4 4 1 0 1 0 0 0 1 1 1 1 2 3 4 4 4 4 4 4 4 4 4 4 4 4 4 3 3 3 3 3 4 4 4 4
6 8 7 4 2 3 6 4 2 3 2 1 1 2 2 2 1 0 0 1 1 2 3 4 4 4 4 4 4 4 4 4 4 4 4 3 4 3 3 3 4 4 4 4
7 8 7 1 3 4 5 4 1 1 1 1 2 3 2 2 2 2 2 1 1 1 3 3 3 3 4 4 4 3 3 3 3 4 4 4 3 3 3 3 4 4 3 3
8 7 3 3 4 3 5 1 2 1 0 1 1 3 2 1 2 2 2 1 2 2 2 3 3 3 4 3 3 2 2 2 2 2 3 4 3 3 3 4 4 4 3 3
6 6 2 4 1 1 3 4 2 2 1 1 2 2 2 2 2 1 1 1 2 3 2 2 2 3 3 2 2 1 2 2 1 1 2 2 2 3 4 4 4 4 3 3
3 1 3 3 2 3 3 3 3 2 2 1 1 1 1 1 1 1 1 1 1 2 3 2 2 2 3 2 2 2 2 1 1 1 1 1 2 3 3 3 3 2 2 2
2 1 2 2 2 3 3 3 3 2 1 0 1 1 1 1 2 2 2 2 2 2 2 2 2 2 2 2 2 2 2 1 1 1 1 1 2 2 2 2 2 2 2 2
3 2 2 1 4 5 5 4 2 2 1 1 1 1 2 2 2 2 2 2 2 2 2 2 2 2 1 2 2 2 2 2 2 1 1 0 1 2 2 1 2 2 2 2
3 3 4 4 5 5 5 4 2 1 1 1 1 2 2 2 2 2 2 2 2 2 2 2 2 2 1 2 2 2 2 2 2 1 1 1 1 1 1 1 1 1 1 3
5 6 4 4 5 4 4 4 3 1 0 1 1 1 2 2 2 2 2 2 2 2 2 2 1 1 1 1 1 1 1 2 2 1 1 1 2 2 2 2 3 3 3 3
3 4 3 3 4 5 4 3 2 2 2 2 1 2 2 2 2 2 2 2 1 1 1 2 1 1 1 1 1 1 2 2 2 2 2 2 2 2 2 2 2 2 3 5
2 3 3 3 3 4 2 1 2 2 2 2 2 2 2 2 1 1 1 1 1 1 1 1 1 1 0 1 1 2 2 2 1 2 2 2 2 3 2 2 2 1 1 4
3 2 2 2 3 3 2 1 1 2 2 2 1 1 1 2 1 1 1 1 1 1 0 0 0 0 1 1 1 2 2 2 3 3 3 2 2 2 2 2 2 1 1 0
2 2 2 2 3 4 3 2 2 2 2 1 1 0 1 1 1 1 0 1 0 0 1 1 0 0 1 2 3 3 2 2 4 4 3 2 2 2 2 2 2 2 1 1
3 3 3 3 3 4 4 3 2 2 2 2 2 1 1 1 1 0 0 1 1 1 1 1 0 2 2 2 3 3 3 2 2 2 2 2 2 2 2 2 2 2 1 2
3 3 3 3 3 3 3 3 2 2 2 2 2 1 1 1 1 1 1 1 1 1 0 1 1 3 2 1 3 3 3 3 2 2 2 2 3 3 2 2 2 2 2 1
3 3 3 3 3 3 3 3 3 2 2 2 1 2 2 2 2 1 1 2 1 2 1 1 2 2 2 1 4 3 3 3 2 2 2 3 3 3 3 3 3 2 2 2
3 3 3 3 2 2 2 2 2 2 2 2 2 2 2 2 2 2 2 1 0 1 2 1 3 2 1 2 5 4 3 2 2 2 2 3 3 3 3 3 2 2 2 2
3 3 3 3 2 2 2 2 2 2 2 2 2 2 2 2 2 1 1 1 1 1 2 1 1 1 2 4 4 3 2 2 2 2 2 3 3 3 3 2 2 2 2 2
3 3 3 3 3 3 2 2 2 2 2 2 2 2 3 2 2 2 1 1 1 1 2 2 2 1 2 5 3 2 2 2 2 2 2 2 2 2 2 2 2 2 2 2
3 3 3 3 2 2 2 2 2 2 2 2 2 2 2 2 2 1 1 1 0 1 2 2 1 2 5 4 2 1 1 1 2 2 2 2 2 2 2 2 2 1 1 2
3 3 2 2 2 2 2 2 1 1 2 1 1 2 2 2 2 2 1 1 0 1 1 0 1 3 3 2 1 1 1 2 2 2 1 2 2 2 2 2 2 2 1 1
3 2 2 2 2 2 2 2 1 1 1 1 1 2 2 1 2 2 1 1 1 1 2 1 1 2 2 1 1 1 1 1 1 1 2 2 1 2 2 2 2 2 2 1
2 2 2 2 1 2 2 2 1 2 2 2 2 2 2 2 2 2 2 2 2 2 2 1 1 1 1 1 1 1 1 1 2 2 2 2 2 2 1 2 2 2 2 1
Wind_Direction
263 276 265 246 244 235 238 250 258 258 263 288 292 290 279 201 171 167 165 162 165 162 155 157 159 165 167 169 170 171 179 181 183 185 187 187 194 200 206 214 218 219 223 222
243 234 237 252 255 244 244 250 253 259 270 332 28 32 177 211 187 184 182 181 176 167 162 167 174 181 179 180 174 178 186 188 180 186 187 191 199 203 210 216 224 224 226 228
245 238 239 241 252 247 241 250 253 255 272 4 128 100 238 225 194 191 197 187 181 177 176 174 181 189 191 189 182 189 192 188 183 186 192 198 201 204 216 221 225 228 233 234
250 240 240 251 260 240 232 239 257 260 296 137 116 118 347 118 131 146 209 205 190 186 179 174 175 183 188 184 184 191 195 192 192 195 195 204 207 212 223 227 226 224 230 233
242 235 239 232 250 260 236 231 277 272 263 187 120 153 124 74 52 19 318 233 200 185 171 172 174 177 180 181 187 195 199 201 198 198 199 211 221 223 229 226 226 227 226 229
242 241 244 291 350 306 246 223 354 285 235 197 216 233 106 46 16 11 26 67 128 150 157 162 169 174 179 181 185 194 198 202 204 209 211 219 226 231 228 227 230 233 229 229
242 246 251 357 334 266 230 348 28 334 258 193 276 349 67 36 29 16 22 66 120 138 147 148 164 177 186 183 188 192 188 191 202 221 225 222 222 225 230 231 233 236 237 231
234 240 247 20 16 299 4 17 23 16 8 31 48 73 99 92 73 48 38 76 118 131 130 140 157 173 174 171 176 187 174 166 178 226 254 231 225 223 229 231 227 226 226 233
290 323 36 28 30 33 9 8 13 2 354 50 114 108 98 86 74 75 79 85 112 130 135 143 159 166 159 147 166 187 177 167 177 209 250 274 251 229 222 226 241 245 232 229
274 301 351 360 5 357 354 352 352 1 7 99 107 94 79 76 81 87 98 111 126 136 137 137 140 134 130 142 155 180 182 188 198 206 203 237 281 268 251 252 253 261 267 259
272 297 308 339 356 353 347 345 357 18 36 63 102 108 84 82 87 92 101 105 122 128 127 125 119 111 131 140 153 170 181 184 212 220 180 218 270 314 287 287 310 283 279 270
304 349 320 326 338 334 333 335 333 5 51 81 95 104 99 92 84 102 107 107 105 109 101 94 101 115 119 127 144 176 195 204 221 233 217 242 232 204 25 271 154 174 271 292
298 311 315 314 315 331 329 329 332 342 85 93 91 122 113 97 89 95 105 105 99 98 100 97 98 104 110 140 151 183 245 254 258 264 254 249 256 249 226 202 193 188 201 217
303 304 307 324 329 329 326 333 356 42 54 66 74 101 109 104 103 108 100 90 86 96 113 104 100 95 114 164 191 224 249 244 256 260 262 266 264 256 253 255 208 191 188 190
314 302 302 322 331 332 333 8 45 55 51 54 81 95 117 122 117 105 105 108 117 128 126 127 117 91 157 236 248 259 262 256 269 279 268 256 262 261 257 266 272 246 190 162
324 318 320 339 347 348 355 29 49 42 37 34 40 70 100 110 117 127 131 153 178 169 182 212 198 198 232 251 252 246 244 262 264 263 258 255 263 266 256 253 260 258 247 226
317 319 325 333 340 338 341 353 9 6 6 6 6 2 123 123 129 141 170 225 213 184 195 201 228 267 254 248 262 263 251 216 236 255 265 278 280 283 284 281 278 265 241 116
320 317 316 317 324 329 332 335 335 333 333 337 328 303 252 201 197 194 298 256 213 193 204 230 311 287 267 255 263 268 257 250 249 270 276 277 284 288 289 284 276 270 262 154
328 325 322 318 313 313 307 307 308 311 318 313 300 299 287 267 253 245 254 253 243 231 298 340 307 261 266 287 283 257 258 255 247 250 257 254 262 275 283 280 273 272 279 273
319 317 315 308 305 298 303 312 310 304 304 293 283 277 279 286 280 259 244 247 291 354 351 334 261 254 257 274 288 260 253 259 262 255 261 266 272 279 279 279 280 277 277 277
312 311 307 306 303 302 318 316 306 309 309 298 290 283 277 276 276 265 243 246 17 19 325 240 237 238 265 312 274 264 255 251 256 260 262 271 281 285 286 282 281 283 281 278
313 316 316 314 313 327 327 313 305 311 315 311 312 309 286 273 277 268 268 311 332 38 286 263 252 54 349 289 266 274 265 257 260 263 265 271 281 289 293 288 286 288 289 283
312 315 316 318 324 326 325 318 315 317 315 307 307 311 312 310 303 293 296 356 329 344 302 327 35 73 282 266 269 278 289 280 272 270 277 278 283 291 292 282 276 280 290 293
306 307 310 316 321 315 309 311 315 312 304 293 298 303 297 293 289 294 330 67 115 272 305 19 96 243 259 257 262 285 300 276 270 280 289 292 295 295 296 302 301 298 294 297
326 319 314 308 300 303 306 294 278 272 283 292 295 292 293 305 311 323 324 299 220 232 282 49 197 240 250 275 283 307 331 334 327 309 303 303 299 304 312 315 317 318 321 324
331 318 321 311 317 315 315 306 291 297 308 307 313 321 323 322 317 314 307 308 318 289 269 259 245 251 278 308 334 357 358 359 329 302 320 317 306 310 323 324 325 328 330 336
320 326 317 316 330 325 324 321 323 327 318 317 326 328 325 319 314 327 325 308 304 288 280 276 261 269 307 326 335 346 349 348 343 328 326 330 327 320 321 318 321 328 321 309